sat.trackr.live / text

‹ back to catalog

STARLINK-31182

NORAD 59159 · 2024-044H

PAYLOAD ACTIVE UNKNOWN

§ Identity

Operator
Country
US
Launch date
2024-03-04
Launch site
AFETR
Launch vehicle
Mass (kg)
RCS (m²)

Purposes: comms

External: N2YO · Heavens-Above · Gunter

§ Orbital elements

Epoch: 2026-09-20T21:27:16.651872Z

Period
94.27 min
Inclination
43.0028°
Eccentricity
0.0000374
Mean motion
15.27576213 rev/d
Perigee alt
482.8 km
Apogee alt
483.3 km
Semi-major
6,861.2 km
B*
2.0602e-5
RAAN
84.2661°
Arg perigee
264.6137°
Mean anomaly
95.4671°
Rev number
14,345

§ Raw data

STARLINK-311821 59159U 24044H   26263.89394273  .00000305  00000+0  20602-4 0  99982 59159  43.0028  84.2661 0000374 264.6137  95.4671 15.27576213143456

JSON: /api/v1/satellites/59159 · /tle

For live sub-satellite position, see the globe view (requires WebGL).

§ Visibility from observer

Set your observer location to see the next 7 days of passes ≥ 10°. The values pass through the URL so the page stays shareable.

No JS? Fill the form by hand. The geolocation button needs JavaScript.